Flag for Switzerland Weather past 2 weeks in Meyrin, Geneva, Switzerland

Now
28 °F

Clear.


Feels Like: 25 °F
Forecast: 28 / 49 °F
Wind: 3 mph from West

Location: Geneva Cointrin Airport

Current Time: Dec 22, 2014 at 3:32:08 AM

Latest Report: Dec 22, 2014 at 2:50 AM


Visibility: 10 mi

Pressure: 30.51 "Hg

Humidity: 100%

Dew point: 28 °F

Location of MeyrinLocation

Historic Weather in Meyrin — Graph

°F

Meyrin temperature yesterday

Maximum temperature yesterday: 46 °F (at 12:20 PM)
Minimum temperature yesterday: 30 °F (at 4:20 AM)
Average temperature yesterday: 37 °F

Past Weeks' High & Low Weather Summary

 TemperatureHumidityPressure
High57 °F (Dec 19, 1:20 PM)100% (Dec 9, 12:20 AM)30.57 "Hg (Dec 9, 12:20 AM)
Low27 °F (Dec 10, 4:50 AM)47% (Dec 13, 1:20 PM)29.89 "Hg (Dec 13, 1:50 AM)
Average42 °F83%30.17 "Hg
* Reported Dec 7 1:20 AM — Dec 22 1:50 AM, Meyrin, Weather by CustomWeather, © 2014

Note: Actual official high and low records may vary slightly from our data, if they occured in-between our weather recording intervals... More about our weather records

Advertising

Meyrin weather history for previous 24 hours

 ConditionsComfort  
Time TempWeatherWind HumidityBarometerVisibility
1:50 AM
Dec 22
28 °FClear.3 mph100%30.51 "Hg10 mi
1:20 AM28 °FClear.2 mph100%30.51 "Hg10 mi
12:50 AM30 °FClear.3 mph100%30.54 "Hg10 mi
12:20 AM30 °FClear.3 mph100%30.54 "Hg10 mi
11:50 PM
Dec 21
30 °FClear.1 mph100%30.54 "Hg10 mi
11:20 PM30 °FClear.2 mph100%30.54 "Hg10 mi
10:20 PM32 °FClear.1 mph93%30.54 "Hg10 mi
9:50 PM32 °FClear.2 mph93%30.54 "Hg10 mi
9:20 PM32 °FClear.2 mph100%30.54 "Hg10 mi
8:50 PM34 °FClear.2 mph93%30.54 "Hg10 mi
8:20 PM34 °FClear.2 mph93%30.57 "Hg10 mi
7:50 PM34 °FClear.1 mph93%30.57 "Hg10 mi
7:20 PM36 °FClear.1 mph87%30.54 "Hg10 mi
6:50 PM37 °FClear.3 mph81%30.54 "Hg10 mi
6:20 PM37 °FClear.1 mph81%30.54 "Hg10 mi
5:50 PM39 °FClear.2 mph75%30.54 "Hg10 mi
5:20 PM41 °FClear.2 mph70%30.54 "Hg10 mi
4:50 PM43 °FSunny.1 mph71%30.54 "Hg10 mi
4:20 PM45 °FPassing clouds.2 mph61%30.54 "HgN/A
3:50 PM46 °FPassing clouds.3 mph57%30.54 "HgN/A
3:20 PM46 °FPassing clouds.2 mph57%30.54 "HgN/A
2:50 PM46 °FPassing clouds.2 mph57%30.54 "HgN/A
2:20 PM46 °FPassing clouds.3 mph57%30.54 "HgN/A
1:50 PM46 °FPassing clouds.2 mph62%30.54 "HgN/A
1:20 PM46 °FPassing clouds.2 mph62%30.54 "HgN/A
12:50 PM45 °FScattered clouds.5 mph66%30.54 "HgN/A
12:20 PM46 °FPartly sunny.2 mph66%30.54 "HgN/A
11:50 AM45 °FScattered clouds.2 mph71%30.57 "HgN/A
11:20 AM45 °FPassing clouds.2 mph66%30.57 "HgN/A
10:50 AM41 °FPassing clouds.3 mph76%30.54 "HgN/A
10:20 AM39 °FPassing clouds.1 mph75%30.54 "HgN/A
9:50 AM37 °FSunny.2 mph81%30.54 "Hg10 mi
9:20 AM32 °FSunny.3 mph93%30.54 "Hg10 mi
8:50 AM30 °FSunny.3 mph100%30.54 "Hg10 mi
8:20 AM30 °FSunny.3 mph93%30.54 "Hg10 mi
7:50 AM30 °FClear.2 mph100%30.54 "Hg10 mi
7:20 AM30 °FClear.2 mph100%30.54 "Hg10 mi
6:50 AM30 °FClear.2 mph93%30.51 "Hg10 mi
6:20 AM30 °FClear.2 mph100%30.51 "Hg10 mi
5:50 AM30 °FClear.2 mph93%30.51 "Hg10 mi
5:20 AM30 °FClear.1 mph93%30.51 "Hg10 mi
4:50 AM32 °FClear.2 mph93%30.51 "Hg10 mi
4:20 AM30 °FClear.3 mph93%30.51 "Hg10 mi
3:50 AM32 °FClear.3 mph93%30.51 "Hg10 mi
3:20 AM32 °FClear.2 mph93%30.51 "Hg10 mi
Weather by CustomWeather, © 2014

See weather overviewHow to use our weather pages